Regional Weather Roundup
Issued by NWS

Home | Current Version | Previous Version | Text Only | Print | Product List | Glossary On
Versions: 1 2 3 4 5 6 7 8 9 10 11 12 13 14 15 16 17 18 19 20 21 22 23 24 25 26 27 28 29 30 31 32 33 34 35 36 37 38 39 40 41 42 43 44 45 46 47 48 49 50
000
ASUS42 KTBW 020616
RWRFL
FLORIDA REGIONAL WEATHER ROUNDUP
NATIONAL WEATHER SERVICE TAMPA BAY RUSKIN FL
200 AM EDT THU APR 02 2015

NOTE: "FAIR" INDICATES FEW OR NO CLOUDS BELOW 12,000 FEET WITH NO
SIGNIFICANT WEATHER AND/OR OBSTRUCTIONS TO VISIBILITY.


FLZ001>010-012>015-112-114-115-020700-
PANHANDLE FLORIDA

CITY           SKY/WX    TMP DP  RH WIND       PRES   REMARKS
PENSACOLA      CLOUDY    69  67  93 S8        30.09F
PENSACOLA NAS  CLOUDY    70  68  93 S7        30.09S
MILTON NAS     CLOUDY    65  64  97 SE6       30.09
CRESTVIEW      MOCLDY    61  60  97 CALM      30.11F
DUKE FIELD     FAIR      64  62  94 S5        30.09F
VALPARAISO     CLOUDY    68  66  93 S2        30.09F
MARY ESTHER    CLOUDY    69  65  86 SE3       30.08F
TRI COUNTY     FAIR      61  60  97 CALM      30.12S
PANAMA CITY    FOG       61  60  97 CALM      30.10F VSB 1/2
TYNDALL AFB    PTCLDY    68  68 100 SW5       30.11F
APALACHICOLA   PTCLDY    67  62  84 CALM      30.13S

STATION/POSITION SKY/WX   TEMP    WIND        PRES    WAVE   SWELL
                          AIR SEA DIR/SP/G            HT/PER HT/PER
                          (F)     (DEG/KT/KT) (MB)    (FT/S) (FT/S)
30.1N   87.6W              71 70  160/  8/ 10 1018.4S   2/ 5   2/ 5
29.2N   88.2W              73 72  160/ 12/ 14 1018.8F   3/ 4   2/ 6
28.8N   86.0W              73 75  200/  8/ 10 1019.9F   2/ 8   2/ 8
PANAMA CITY BEAC           69 69  200/  5/  7 1019.7S
CAPE SAN BLAS    NOT AVBL
TOWER C                    69     230/  6/  6 1020.2F
28.5N   84.5W              69 69  210/  4/  4 1020.9S   1/ 4   2/ 4

$$
FLZ011-016>038-118-127-128-134-139-239-020700-
NORTH FLORIDA

CITY           SKY/WX    TMP DP  RH WIND       PRES   REMARKS
MARIANNA       PTCLDY    65  65 100 S5        30.11S
TALLAHASSEE    MOCLDY    64  59  83 CALM      30.13S
PERRY          PTCLDY    64  64  97 CALM      30.15S
CROSS CITY       N/A     65  64  97 E5        30.16R
LAKE CITY      FAIR      63  63 100 E5        30.16S
GAINESVILLE    MOCLDY    64  61  90 E3        30.16S
MAYPORT NAS    CLEAR     62  60  93 CALM      30.18R
JACKSONVILLE   PTCLDY    57  57 100 CALM      30.18R
JAX NAS        MOCLDY    69  63  81 NE3       30.18S
JAX CRAIG      PTCLDY    60  57  89 CALM      30.18R
JAX CECIL      MOCLDY    59  59 100 CALM      30.18S FOG
FERNANDINA BEA FAIR      63  61  94 CALM      30.17S
ST AUGUSTINE   PTCLDY    63  61  93 NW3       30.18R

STATION/POSITION SKY/WX   TEMP    WIND        PRES    WAVE   SWELL
                          AIR SEA DIR/SP/G            HT/PER HT/PER
                          (F)     (DEG/KT/KT) (MB)    (FT/S) (FT/S)
SHELL POINT                69     260/  6/  7   N/A
KEATON BEACH               69     270/  6/  8 1020.8F
CEDAR KEY                  70     320/  2/  3 1021.6R
FERNANDINA                 62 64  350/  3/  4 1021.3S
30.7N   81.3W                 63                N/A     2/ 4
MAYPORT                    63 63   10/  2/  2 1021.7R
31.4N   80.9W              65 61   80/ 14/ 16 1022.0F   3/ 5
ST AUGUSTINE               66 63  340/  4/  5 1022.3R

$$
FLZ040-043>046-052-053-057-058-063-144-020700-
INTERIOR CENTRAL FLORIDA

CITY           SKY/WX    TMP DP  RH WIND       PRES   REMARKS
OCALA          MOCLDY    64  61  88 CALM      30.17F
THE VILLAGES     N/A     66  66 100 W3        30.06F
LEESBURG       PTCLDY    66  64  93 N5        30.17S
SANFORD        PTCLDY    66  63  90 W7        30.15S
ORLANDO EXEC   PTCLDY    69  63  81 NW6       30.16S
ORLANDO INTL   PTCLDY    68  63  84 W5        30.16S
WINTER HAVEN   CLEAR     67  61  81 N5        30.17F
LAKELAND       PTCLDY    63  59  88 CALM      30.17S
BARTOW         FAIR      63  63 100 N3        30.17S
OKEECHOBEE     CLEAR     64  61  88 N6        30.15F

$$
FLZ041-047-054-059-064-141-147-020700-
EAST CENTRAL FLORIDA

CITY           SKY/WX    TMP DP  RH WIND       PRES   REMARKS
DAYTONA BEACH  PTCLDY    67  63  87 N5        30.16R
DELAND           N/A    N/A N/A N/A W5        30.16S
JFK SPACE CTR  CLEAR     66  62  86 W6        30.13F
CAPE CANAVERAL CLEAR     67  63  85 SW2       30.14S
PATRICK AFB    CLEAR     70  64  79 NW8       30.14
MELBOURNE      CLEAR     66  59  78 CALM      30.15F
VERO BEACH     CLEAR     63  59  87 NW3       30.15S
FT PIERCE      CLEAR     60  59  96 NW3       30.14S
STUART         CLEAR     68  61  77 S5        30.15F

STATION/POSITION SKY/WX   TEMP    WIND        PRES    WAVE   SWELL
                          AIR SEA DIR/SP/G            HT/PER HT/PER
                          (F)     (DEG/KT/KT) (MB)    (FT/S) (FT/S)
28.5N   80.2W              71 71  310/  4/  6 1021.0R
28.9N   78.5W              71 75   50/  6/  8 1021.0S
TRIDENT PIER               70 73  290/  4/  6 1021.3R
28.4N   80.5W                 72                N/A     1/10
27.5N   80.2W                 76                N/A     2/ 7

$$
FLZ050-056-061-142-242-148-248-149-249-151-251-155-255-
160-260-020700-
WEST CENTRAL FLORIDA

CITY           SKY/WX    TMP DP  RH WIND       PRES   REMARKS
CRYSTAL RIVER  FAIR      63  61  94 NE3       30.17R
INVERNESS      FAIR      64  -4   6 CALM      30.17F
BROOKSVILLE    PTCLDY    60  59  96 E8        30.17R
ZEPHYRHILLS    FAIR      55  55 100 CALM      30.18R
CLEARWATER     PTCLDY    65  65 100 W3        30.15F
TAMPA INTL     PTCLDY    67  62  84 NW3       30.16S
TAMPA EXEC     PTCLDY    63  59  88 CALM      30.17R
PLANT CITY     PTCLDY    63  63 100 CALM      30.19R
MACDILL AFB    PTCLDY    63  63  99 NW1       30.15F
PETER O KNIGHT PTCLDY    70  64  83 CALM      30.16S
ST PETERSBURG  CLEAR     70  65  84 CALM      30.14S
SARASOTA       CLEAR     65  63  93 N5        30.14S
VENICE         FAIR      64  64 100 N3        30.16R

STATION/POSITION SKY/WX   TEMP    WIND        PRES    WAVE   SWELL
                          AIR SEA DIR/SP/G            HT/PER HT/PER
                          (F)     (DEG/KT/KT) (MB)    (FT/S) (FT/S)
CEDAR KEY                  70     320/  2/  3 1021.6R
28.5N   84.5W              69 69  210/  4/  4 1020.9S   1/ 4   2/ 4
27.3N   84.2W                 73                N/A     1/ 4
CLEARWATER BEACH NOT AVBL
MIDDLE TAMPA BAY           70     360/  5/  5 1021.3F
VENICE                     67 73   10/  4/  4 1020.5R

$$
FLZ066-069-070-075>078-162-262-165-265-020700-
SOUTHWEST FLORIDA AND KEYS

CITY           SKY/WX    TMP DP  RH WIND       PRES   REMARKS
PUNTA GORDA    CLEAR     63  62  97 N3        30.16F
FT MYERS       CLEAR     66  64  93 S3        30.15R
SOUTHWEST INTL CLEAR     65  62  90 CALM      30.15S
NAPLES         CLEAR     66  62  87 CALM      30.15F
MARCO ISLAND   MOCLDY    63  57  82 CALM      30.15F
IMMOKALEE      CLEAR    N/A N/A N/A CALM      30.16S
MARATHON       CLEAR     73  62  68 VRB6      30.14S
KEY WEST NAS   PTCLDY    72  61  68 E8        30.14F
KEY WEST INTL  PTCLDY    74  62  66 E8        30.14F

STATION/POSITION SKY/WX   TEMP    WIND        PRES    WAVE   SWELL
                          AIR SEA DIR/SP/G            HT/PER HT/PER
                          (F)     (DEG/KT/KT) (MB)    (FT/S) (FT/S)
VENICE                     67 73   10/  4/  4 1020.5R
NAPLES                     70 76  120/  1/  1 1021.1R
26.0N   85.6W              72 74  110/ 10/ 12 1020.0F   2/ 6   2/ 6
DRY TORTUGAS               74      60/ 10/ 11 1020.5F
NW FL BAY                  76     110/  4/  5 1021.1
SAND KEY                   75     100/ 12/ 14 1020.3F
SOMBRERO KEY               75     100/ 11/ 13 1021.1F
LONG KEY                   75 76  120/  7/  7 1021.5F
MOLASSES REEF              75 77  110/  7/  8 1020.6F

$$
FLZ067-068-071>074-168-172>174-020700-
SOUTHEAST FLORIDA

CITY           SKY/WX    TMP DP  RH WIND       PRES   REMARKS
W PALM BEACH   CLEAR     70  62  76 SW7       30.13F
FT LAUDER-EXEC CLEAR     70  62  76 S3        30.14F
FT LAUDERDALE  PTCLDY    71  63  75 SW3       30.14
POMPANO BEACH  CLEAR     70  61  73 SW5       30.14F
PEMBROKE PINES CLEAR     70  62  76 CALM      30.16F
OPA LOCKA      CLEAR     70  63  78 NW3       30.15F
MIAMI          CLEAR     70  62  76 CALM      30.15F
WEST KENDALL   CLEAR     65  61  87 CALM      30.15F
HOMESTEAD      CLEAR     66  62  85 CALM      30.15S

STATION/POSITION SKY/WX   TEMP    WIND        PRES    WAVE   SWELL
                          AIR SEA DIR/SP/G            HT/PER HT/PER
                          (F)     (DEG/KT/KT) (MB)    (FT/S) (FT/S)
PORT EVERGLADES            72     260/  3/  6 1020.4F
VIRGINIA KEY               73 77  310/  2/  4 1020.7S
LAKE WORTH                 73 77  200/  8/ 11 1020.4F
SETTLEMENT POINT           72     130/  6/  7 1021.1F

$$




USA.gov is the U.S. government's official web portal to all federal, state and local government web resources and services.